FW1492 Weather Reports


Display with metric or nautical units.
time (UTC)temp
F
wind
direction
speed
MPH
gust
MPH
rain 1hr
in
rain 24hr
in
rain mn
in
humidity
%
barometer
mb
20260904051508 72 47 0.0 1.0 0.00 0.09 0.00 96 1013.0
20260904050006 72 18 0.0 2.0 0.00 0.09 0.00 95 1012.9
20260904044505 73 24 0.0 1.0 0.00 0.56 0.00 94 1012.7
20260904043103 73 314 0.0 0.0 0.00 0.56 0.00 94 1012.9
20260904041557 73 305 0.0 0.0 0.00 0.56 0.00 93 1013.0
20260904034553 73 307 0.0 1.0 0.00 0.59 0.56 93 1013.5
20260904033049 73 24 0.0 0.0 0.00 0.59 0.56 92 1013.6
20260904031551 73 24 0.0 0.0 0.00 0.59 0.56 92 1013.4
20260904030052 73 23 0.0 0.0 0.00 0.59 0.56 93 1013.2
20260904024549 73 24 0.0 0.0 0.00 0.59 0.56 92 1013.4
20260904023056 73 23 0.0 0.0 0.00 0.59 0.56 92 1013.9
20260904021546 74 24 0.0 0.0 0.00 0.59 0.56 91 1014.0
20260904020046 74 25 0.0 1.0 0.00 0.59 0.56 92 1014.5
20260904014557 74 28 0.0 0.0 0.00 0.59 0.56 91 1014.4
20260904013047 74 27 0.0 1.0 0.00 0.59 0.56 91 1014.4
20260904011543 74 23 0.0 1.0 0.00 0.59 0.56 91 1014.6
20260904010049 74 56 0.0 0.0 0.00 0.59 0.56 91 1014.5
20260904004544 74 56 0.0 0.0 0.00 0.59 0.56 91 1014.3
20260904003041 74 56 0.0 0.0 0.00 0.59 0.56 92 1014.2
20260904001541 74 56 0.0 0.0 0.00 0.59 0.56 92 1014.1
20260904000040 74 56 0.0 0.0 0.00 0.59 0.56 92 1014.1
20260903234539 75 56 0.0 0.0 0.00 0.59 0.56 92 1014.0
20260903233038 75 56 0.0 0.0 0.00 0.59 0.56 91 1013.9
20260903231542 76 55 0.0 0.0 0.00 0.59 0.56 91 1014.0
20260903230041 77 55 0.0 0.0 0.00 0.59 0.56 88 1013.9
20260903224556 77 55 0.0 0.0 0.00 0.59 0.56 87 1013.9
20260903223036 78 55 0.0 0.0 0.00 0.59 0.56 87 1013.9
20260903221536 79 55 0.0 0.0 0.00 0.59 0.56 86 1014.1
20260903220044 80 55 0.0 0.0 0.00 0.59 0.56 84 1013.9
20260903214540 80 55 0.0 0.0 0.00 0.59 0.56 84 1014.0
20260903213039 80 5 0.0 0.0 0.00 0.59 0.56 83 1013.7
20260903211539 81 5 0.0 2.0 0.00 0.59 0.56 81 1013.9
20260903210038 81 59 0.0 2.0 0.00 0.59 0.56 82 1014.0
20260903204529 79 311 0.0 1.0 0.00 0.59 0.56 84 1014.1
20260903203028 79 18 0.0 1.0 0.00 0.59 0.56 85 1014.1
20260903201527 79 56 0.0 2.0 0.00 0.59 0.56 84 1014.1
20260903200028 79 63 0.0 3.0 0.00 0.59 0.56 84 1014.0
20260903194524 79 32 1.0 4.0 0.00 0.59 0.56 83 1014.1
20260903193022 79 354 0.0 3.0 0.00 0.59 0.56 85 1014.3
20260903191519 78 345 1.0 5.0 0.00 0.59 0.56 86 1014.4
20260903190018 78 250 0.0 5.0 0.00 0.59 0.56 86 1014.6
20260903184516 78 75 0.0 4.0 0.00 0.61 0.56 87 1014.7
20260903183014 77 246 0.0 1.0 0.00 0.61 0.56 88 1014.9
20260903181512 77 21 0.0 5.0 0.00 0.61 0.56 88 1014.9
20260903180009 76 53 2.0 5.0 0.00 0.61 0.56 89 1015.1
20260903174507 75 34 0.0 5.0 0.00 0.62 0.56 90 1014.9
20260903173004 75 156 1.0 5.0 0.00 0.62 0.56 92 1015.1
20260903171604 73 44 1.0 8.0 0.00 0.62 0.56 97 1015.5
20260903170058 72 291 0.0 7.0 0.00 0.62 0.56 99 1015.7
20260903164602 72 299 0.0 4.0 0.00 0.62 0.56 100 1015.8
20260903163057 71 274 2.0 5.0 0.00 0.62 0.56 100 1015.9
20260903161553 70 317 0.0 6.0 0.00 0.62 0.56 100 1016.0
20260903160050 69 266 1.0 4.0 0.00 0.62 0.56 100 1016.0
20260903154604 69 255 0.0 2.0 0.00 0.62 0.56 100 1016.3
20260903153043 69 279 0.0 7.0 0.00 0.62 0.56 100 1016.5
20260903151541 68 9 1.0 4.0 0.00 0.62 0.56 100 1016.8
20260903150041 68 266 1.0 4.0 0.00 0.62 0.56 100 1016.8
20260903144539 67 36 1.0 6.0 0.00 0.62 0.56 100 1016.6
20260903143045 67 295 0.0 5.0 0.00 0.62 0.56 100 1016.7
20260903141546 66 306 2.0 6.0 0.00 0.62 0.56 100 1016.6
20260903140038 66 267 0.0 1.0 0.00 0.62 0.56 100 1016.4
20260903134534 66 320 0.0 7.0 0.00 0.62 0.56 100 1016.4
20260903133035 66 288 0.0 5.0 0.00 0.62 0.56 100 1016.1
20260903131530 65 339 1.0 4.0 0.00 0.62 0.56 100 1016.4
20260903130035 65 317 0.0 4.0 0.00 0.62 0.56 100 1016.2
20260903124529 65 285 0.0 4.0 0.00 0.62 0.56 100 1016.0
20260903123034 65 283 0.0 3.0 0.00 0.62 0.56 100 1016.3
20260903121528 65 289 0.0 3.0 0.00 0.62 0.56 100 1015.9
20260903120027 65 266 0.0 6.0 0.00 0.62 0.56 100 1016.1
20260903114526 64 264 1.0 6.0 0.00 0.62 0.56 100 1016.2
20260903113029 64 280 0.0 5.0 0.00 0.62 0.56 100 1016.1
20260903111535 64 234 0.0 4.0 0.00 0.62 0.56 100 1016.5
20260903110025 64 271 0.0 3.0 0.00 0.62 0.56 100 1016.3
20260903104524 64 303 1.0 4.0 0.00 0.62 0.56 100 1016.7
20260903103023 64 268 0.0 4.0 0.00 0.62 0.56 100 1016.9
20260903101534 64 291 0.0 4.0 0.00 0.62 0.56 100 1016.7
20260903100021 64 296 0.0 2.0 0.00 0.62 0.56 100 1016.7
20260903094522 64 302 0.0 3.0 0.00 0.62 0.56 100 1016.5
20260903093022 64 77 0.0 0.0 0.00 0.62 0.56 100 1016.2
20260903091521 64 164 0.0 1.0 0.01 0.62 0.56 100 1016.3
20260903090019 64 309 0.0 3.0 0.01 0.62 0.56 100 1016.5
20260903084521 64 8 0.0 2.0 0.03 0.62 0.56 100 1016.5
20260903083033 64 23 0.0 1.0 0.03 0.62 0.56 100 1016.5
20260903081529 64 212 0.0 1.0 0.02 0.61 0.55 100 1015.7
20260903080047 65 243 0.0 3.0 0.02 0.61 0.55 100 1015.4
20260903074513 65 271 0.0 4.0 0.01 0.59 0.53 100 1017.0
20260903073018 65 277 0.0 2.0 0.02 0.59 0.53 100 1017.3
20260903071512 65 51 0.0 1.0 0.02 0.59 0.53 100 1017.1
20260903070011 65 219 0.0 0.0 0.03 0.59 0.53 100 1016.8
20260903064510 64 198 0.0 0.0 0.04 0.57 0.52 100 1016.7
20260903063008 64 174 0.0 0.0 0.03 0.56 0.51 100 1016.8
20260903061505 64 231 0.0 1.0 0.04 0.56 0.51 100 1017.5
20260903060003 64 242 0.0 0.0 0.03 0.56 0.50 100 1017.9
20260903054501 64 248 0.0 0.0 0.05 0.54 0.48 100 1018.4
20260903053059 64 153 0.0 0.0 0.12 0.54 0.48 100 1018.6